AirNav   ProFlight Series 2 Aviation Headset
 
 1467 users online  

68MO Southeast Health Center of Stoddard County Heliport
Dexter, Missouri, USA

GOING TO DEXTER?


FAA INFORMATION EFFECTIVE 13 AUGUST 2020

Location

FAA Identifier: 68MO
Lat/Long: 36-48-26.5300N 089-58-02.6500W
36-48.442167N 089-58.044167W
36.8073694,-89.9674028
(estimated)
Elevation: 420 ft. / 128 m (estimated)
Variation: 02E (1985)
Time zone: UTC -5 (UTC -6 during Standard Time)
Zip code: 63841

Heliport Operations

Heliport use: Private use, MEDICAL.
Activation date: 04/1982
Control tower: no
ARTCC: MEMPHIS CENTER
FSS: SAINT LOUIS FLIGHT SERVICE STATION
Attendance: CONTINUOUS
Wind indicator: no
Segmented circle: no

Heliport Communications

WX AWOS-3PT at MAW (13 nm S): 119.825 (573-276-9970)
WX ASOS at POF (17 nm W): 124.225 (573-776-1686)

Nearby radio navigation aids

VOR radial/distance  VOR name  Freq  Var
MAWr347/15.4MALDEN VORTAC111.2003E

 
NDB name  Hdg/Dist  Freq  Var  ID
CAIRO247/38.839700ECIR -.-. .. .-.

Heliport Services

Runway Information

Helipad H1

Dimensions: 40 x 40 ft. / 12 x 12 m
Surface: asphalt
Latitude: 36-48.442167N
Longitude: 089-58.044167W
Elevation: 420.0 ft.
Traffic pattern: leftleft

Heliport Ownership and Management from official FAA records

Ownership: Privately-owned
Owner: MISSOURI SOUTHEN HEALTHCARE
1200 N. ONE MILE ROAD
DEXTER, MO 63841
Phone 573-624-5566
Manager: GARY MARTIN
1200 N. ONE MILE ROAD
DEXTER, MO 63841
Phone 573-614-1915

Additional Remarks

A52-H1 160' TWR 200' SW.
FOR CD CTC MEMPHIS ARTCC AT 901-368-8453.

Instrument Procedures

There are no published instrument procedures at 68MO.

Some nearby airports with instrument procedures:

KDXE - Dexter Municipal Airport (2 nm SE)
KMAW - Malden Regional Airport (13 nm S)
KPOF - Poplar Bluff Municipal Airport (17 nm W)
KSIK - Sikeston Memorial Municipal Airport (20 nm E)
M85 - Gideon Memorial Airport (22 nm S)
 
Loc | Ops | Rwys | IFR | FBO | Links
Com | Nav | Svcs | Stats | Notes
Area around 68MO (Southeast Health Center of Stoddard County Heliport)
 
Road maps at: MapQuest Bing Google
 
Aerial photo
No photo
 
Sectional chart

 
Airport distance calculator
Flying to Southeast Health Center of Stoddard County Heliport? Find the distance to fly.

From to 68MO

Sunrise and sunset
Times for 14-Aug-2020
 Local
(UTC-5)
 Zulu
(UTC)
Morning civil twilight05:5010:50
Sunrise06:1811:18
Sunset19:5100:51
Evening civil twilight20:1801:18

Current date and time
Zulu (UTC)  14-Aug-2020 14:58:42
Local (UTC-5)  14-Aug-2020 09:58:42
 
METAR
KMAW 
13nm S 
141455Z AUTO 02005KT 10SM BKN009 BKN013 25/22 A2999 RMK AO2
KPOF 
17nm W 
141453Z AUTO 05003KT 10SM OVC010 24/22 A2998 RMK AO2 CIG 007V013 SLP148 T02440217 53008
KSIK 
20nm E 
141455Z AUTO 05004KT 10SM OVC010 25/22 A2998 RMK AO2
TAF
KCGI 
31nm NE 
141404Z 1414/1512 07004KT P6SM OVC008 FM141530 03004KT P6SM SCT030 BKN070 FM141700 04006KT P6SM SCT035 BKN120 FM150000 VRB03KT P6SM FEW040
NOTAMs
Click for the latest NOTAMs
NOTAMs are issued by the DoD/FAA and will open in a separate window not controlled by AirNav.

 

 
 

Would you like to see your business listed on this page?

 If your business provides an interesting product or service to pilots, flight crews, aircraft, or users of the Southeast Health Center of Stoddard County Heliport, you should consider listing it here.  To start the listing process, click on the button below
 
Add a business
 

Other Pages about Southeast Health Center of Stoddard County Heliport

Update a link
 
Copyright © AirNav, LLC. All rights reserved. Privacy Policy  Contact